EW4271 Weather Reports


time (UTC)temp
C
wind
direction
speed
KPH
gust
KPH
rain 1hr
cm
rain 24hr
cm
rain mn
cm
humidity
%
barometer
mb
20260505074127 12 277 3.2 9.7 0.00 0.00 0.00 36 1015.6
20260505073701 12 47 4.8 19.3 0.00 0.00 0.00 35 1015.6
20260505073134 12 350 6.4 19.3 0.00 0.00 0.00 36 1015.6
20260505072627 12 316 3.2 14.5 0.00 0.00 0.00 35 1015.4
20260505072122 12 5 4.8 8.0 0.00 0.00 0.00 35 1015.2
20260505071640 12 333 4.8 9.7 0.00 0.00 0.00 34 1015.2
20260505071133 12 70 4.8 9.7 0.00 0.00 0.00 34 1015.2
20260505070627 12 360 4.8 9.7 0.00 0.00 0.00 34 1015.2
20260505070140 12 355 3.2 9.7 0.00 0.00 0.00 34 1015.2
20260505065635 12 114 3.2 9.7 0.00 0.00 0.00 34 1015.3
20260505065128 12 22 1.6 17.7 0.00 0.00 0.00 33 1015.3
20260505064623 12 79 6.4 17.7 0.00 0.00 0.00 33 1015.2
20260505064136 12 257 3.2 9.7 0.00 0.00 0.00 33 1015.2
20260505063635 12 53 4.8 20.9 0.00 0.00 0.00 32 1015.2
20260505063127 12 5 8.0 20.9 0.00 0.00 0.00 32 1015.1
20260505062622 12 355 4.8 8.0 0.00 0.00 0.00 33 1015.2
20260505062135 12 47 1.6 6.4 0.00 0.00 0.00 33 1015.2
20260505061630 12 292 3.2 8.0 0.00 0.00 0.00 32 1015.2
20260505061122 13 237 1.6 8.0 0.00 0.00 0.00 31 1015.4
20260505060636 13 35 1.6 4.8 0.00 0.00 0.00 32 1015.4
20260505060130 13 79 1.6 14.5 0.00 0.00 0.00 32 1015.2
20260505055627 13 240 4.8 14.5 0.00 0.00 0.00 32 1015.0
20260505055201 13 228 3.2 11.3 0.00 0.00 0.00 34 1015.1
20260505054634 12 272 0.0 4.8 0.00 0.00 0.00 37 1015.2
20260505054126 12 300 3.2 8.0 0.00 0.00 0.00 37 1015.3
20260505053641 13 298 3.2 8.0 0.00 0.00 0.00 38 1015.0
20260505053135 13 161 0.0 4.8 0.00 0.00 0.00 36 1015.1
20260505052628 13 161 1.6 4.8 0.00 0.00 0.00 36 1014.9
20260505052122 13 161 0.0 4.8 0.00 0.00 0.00 37 1014.9
20260505051636 13 161 3.2 4.8 0.00 0.00 0.00 35 1014.8
20260505051134 13 136 0.0 0.0 0.00 0.00 0.00 36 1014.7
20260505050626 14 136 0.0 0.0 0.00 0.00 0.00 35 1014.8
20260505050139 14 142 0.0 0.0 0.00 0.00 0.00 35 1014.8
20260505041624 14 261 1.6 9.7 0.00 0.00 0.00 32 1014.8
20260505041158 14 207 1.6 9.7 0.00 0.00 0.00 33 1014.7
20260505040630 14 146 1.6 9.7 0.00 0.00 0.00 32 1014.7
20260505040125 14 232 4.8 9.7 0.00 0.00 0.00 32 1014.6
20260505035638 14 134 1.6 3.2 0.00 0.00 0.00 32 1014.8
20260505035132 15 134 1.6 8.0 0.00 0.00 0.00 32 1014.9
20260505034626 15 140 1.6 8.0 0.00 0.00 0.00 31 1014.7
20260505034159 15 90 3.2 8.0 0.00 0.00 0.00 31 1014.7
20260505033637 14 163 1.6 6.4 0.00 0.00 0.00 31 1014.6
20260505033152 15 207 1.6 4.8 0.00 0.00 0.00 30 1014.6
20260505032625 15 149 1.6 9.7 0.00 0.00 0.00 30 1014.6
20260505032138 15 50 1.6 9.7 0.00 0.00 0.00 30 1014.6
20260505031652 15 48 4.8 8.0 0.00 0.00 0.00 30 1014.5
20260505031125 15 302 1.6 6.4 0.00 0.00 0.00 30 1014.5
20260505030638 15 63 1.6 9.7 0.00 0.00 0.00 29 1014.4
20260505030130 15 69 0.0 4.8 0.00 0.00 0.00 29 1014.4
20260505025644 15 83 1.6 6.4 0.00 0.00 0.00 29 1014.5
20260505025138 15 232 1.6 6.4 0.00 0.00 0.00 28 1014.5
20260505024630 15 103 1.6 12.9 0.00 0.00 0.00 28 1014.5
20260505024127 15 232 1.6 6.4 0.00 0.00 0.00 28 1014.2
20260505023639 15 146 1.6 12.9 0.00 0.00 0.00 28 1014.1
20260505023132 15 49 4.8 12.9 0.00 0.00 0.00 28 1014.3
20260505022646 15 61 1.6 4.8 0.00 0.00 0.00 26 1014.2
20260505022158 15 45 1.6 4.8 0.00 0.00 0.00 26 1014.2
20260505021629 15 144 1.6 4.8 0.00 0.00 0.00 26 1014.0
20260505021123 15 171 3.2 6.4 0.00 0.00 0.00 25 1014.1
20260505020637 15 53 1.6 9.7 0.00 0.00 0.00 25 1014.1
20260505020129 16 209 4.8 8.0 0.00 0.00 0.00 25 1014.2
20260505015644 16 88 1.6 6.4 0.00 0.00 0.00 24 1014.2
20260505015158 16 355 3.2 4.8 0.00 0.00 0.00 23 1014.1
20260505014634 16 177 1.6 8.0 0.00 0.00 0.00 23 1014.1
20260505014127 16 219 3.2 8.0 0.00 0.00 0.00 24 1014.0
20260505013701 16 302 3.2 8.0 0.00 0.00 0.00 23 1013.9
20260505013134 16 59 3.2 12.9 0.00 0.00 0.00 23 1013.9
20260505012628 16 276 1.6 12.9 0.00 0.00 0.00 22 1013.9
20260505012122 16 78 0.0 6.4 0.00 0.00 0.00 22 1013.8
20260505011636 16 42 3.2 6.4 0.00 0.00 0.00 22 1013.8
20260505011131 17 213 3.2 11.3 0.00 0.00 0.00 21 1013.7
20260505010628 17 194 1.6 16.1 0.00 0.00 0.00 21 1013.7
20260505010143 17 306 3.2 16.1 0.00 0.00 0.00 21 1013.8
20260505005635 17 273 4.8 16.1 0.00 0.00 0.00 20 1013.8
20260505005129 17 66 3.2 8.0 0.00 0.00 0.00 19 1013.9
20260505004622 17 316 4.8 8.0 0.00 0.00 0.00 19 1013.9
20260505004136 17 337 0.0 8.0 0.00 0.00 0.00 19 1014.0
20260505003629 17 355 4.8 8.0 0.00 0.00 0.00 19 1013.9
20260505003144 17 140 3.2 11.3 0.00 0.00 0.00 19 1014.0
20260505002636 17 22 1.6 8.0 0.00 0.00 0.00 20 1014.0
20260505002133 17 305 3.2 16.1 0.00 0.00 0.00 19 1014.0
20260505001628 17 307 3.2 9.7 0.00 0.00 0.00 18 1013.9
20260505001141 17 302 1.6 8.0 0.00 0.00 0.00 20 1013.9
20260505000655 17 279 3.2 9.7 0.00 0.00 0.00 19 1013.9
20260505000127 17 90 1.6 17.7 0.00 0.00 0.00 19 1014.0
20260504235641 17 290 6.4 17.7 0.00 0.00 0.00 18 1014.0
20260504235134 17 40 6.4 14.5 0.00 0.00 0.00 19 1014.0
20260504234649 17 146 3.2 17.7 0.00 0.00 0.00 20 1013.9
20260504234121 17 290 6.4 17.7 0.00 0.00 0.00 19 1014.1
20260504233656 17 238 4.8 14.5 0.00 0.00 0.00 20 1014.1
20260504233132 17 312 4.8 14.5 0.00 0.00 0.00 20 1014.1
20260504232625 18 306 6.4 14.5 0.00 0.00 0.00 19 1014.0
20260504232138 18 40 4.8 12.9 0.00 0.00 0.00 21 1014.1
20260504231632 18 332 4.8 14.5 0.00 0.00 0.00 20 1014.0
20260504231127 18 334 3.2 14.5 0.00 0.00 0.00 20 1014.0
20260504230639 18 42 3.2 11.3 0.00 0.00 0.00 20 1014.1
20260504230131 18 226 3.2 14.5 0.00 0.00 0.00 21 1014.2
20260504225624 18 213 4.8 16.1 0.00 0.00 0.00 21 1014.4
20260504225136 18 342 6.4 17.7 0.00 0.00 0.00 21 1014.5
20260504224633 18 203 4.8 14.5 0.00 0.00 0.00 21 1014.3
20260504224126 18 249 3.2 17.7 0.00 0.00 0.00 21 1014.5
20260504223700 18 360 6.4 17.7 0.00 0.00 0.00 20 1014.5
20260504223132 18 18 6.4 12.9 0.00 0.00 0.00 21 1014.6
20260504222626 18 5 4.8 12.9 0.00 0.00 0.00 20 1014.7
20260504222139 18 294 4.8 14.5 0.00 0.00 0.00 20 1014.7
20260504221652 18 22 3.2 14.5 0.00 0.00 0.00 21 1014.8
20260504221125 18 340 3.2 14.5 0.00 0.00 0.00 20 1014.8
20260504220623 18 344 3.2 11.3 0.00 0.00 0.00 20 1014.8
20260504220136 18 306 4.8 9.7 0.00 0.00 0.00 20 1014.9
20260504215647 18 159 3.2 9.7 0.00 0.00 0.00 21 1015.0
20260504215200 17 229 1.6 14.5 0.00 0.00 0.00 20 1014.9
20260504214653 17 29 6.4 14.5 0.00 0.00 0.00 19 1015.0
20260504214126 17 40 6.4 16.1 0.00 0.00 0.00 20 1015.1
20260504213700 17 55 9.7 16.1 0.00 0.00 0.00 19 1015.2
20260504213132 17 103 4.8 17.7 0.00 0.00 0.00 19 1015.4
20260504212626 18 98 8.0 16.1 0.00 0.00 0.00 19 1015.4
20260504212201 17 360 6.4 19.3 0.00 0.00 0.00 18 1015.5
20260504211634 17 78 6.4 19.3 0.00 0.00 0.00 18 1015.5
20260504211132 17 63 4.8 9.7 0.00 0.00 0.00 17 1015.6
20260504210626 18 38 4.8 9.7 0.00 0.00 0.00 18 1015.6
20260504210140 18 271 4.8 9.7 0.00 0.00 0.00 17 1015.9
20260504205634 17 111 4.8 9.7 0.00 0.00 0.00 17 1015.9
20260504205128 17 304 3.2 14.5 0.00 0.00 0.00 18 1016.0
20260504204621 17 273 6.4 14.5 0.00 0.00 0.00 16 1016.0
20260504204135 17 58 3.2 16.1 0.00 0.00 0.00 16 1016.0
20260504203629 17 186 6.4 16.1 0.00 0.00 0.00 16 1016.0
20260504203146 18 230 3.2 11.3 0.00 0.00 0.00 16 1016.2
20260504202700 17 306 4.8 17.7 0.00 0.00 0.00 16 1016.3
20260504202133 17 333 6.4 17.7 0.00 0.00 0.00 16 1016.4
20260504201626 17 322 8.0 12.9 0.00 0.00 0.00 17 1016.5
20260504201200 18 355 4.8 16.1 0.00 0.00 0.00 16 1016.4
20260504200654 18 274 3.2 16.1 0.00 0.00 0.00 17 1016.3
20260504200125 18 126 4.8 14.5 0.00 0.00 0.00 17 1016.3
20260504195700 18 34 3.2 12.9 0.00 0.00 0.00 18 1016.2
20260504195132 18 223 3.2 17.7 0.00 0.00 0.00 18 1016.3
20260504194626 17 305 6.4 19.3 0.00 0.00 0.00 18 1016.2
20260504194123 18 94 11.3 19.3 0.00 0.00 0.00 18 1016.5
20260504193637 18 70 3.2 16.1 0.00 0.00 0.00 18 1016.5
20260504193151 17 275 3.2 16.1 0.00 0.00 0.00 18 1016.6
20260504192624 17 24 8.0 16.1 0.00 0.00 0.00 17 1016.6
20260504192139 18 115 4.8 14.5 0.00 0.00 0.00 18 1016.6
20260504191633 18 343 3.2 14.5 0.00 0.00 0.00 21 1016.6
20260504191126 18 78 3.2 9.7 0.00 0.00 0.00 22 1016.6
20260504190640 17 50 6.4 9.7 0.00 0.00 0.00 23 1016.5
20260504190134 17 307 4.8 11.3 0.00 0.00 0.00 23 1016.7
20260504185651 17 355 3.2 8.0 0.00 0.00 0.00 24 1016.4
20260504185125 17 250 4.8 11.3 0.00 0.00 0.00 24 1016.6
20260504184638 17 52 1.6 16.1 0.00 0.00 0.00 24 1016.6
20260504184132 17 25 6.4 16.1 0.00 0.00 0.00 24 1016.9
20260504183625 17 221 6.4 9.7 0.00 0.00 0.00 22 1017.0
20260504183137 17 68 1.6 9.7 0.00 0.00 0.00 23 1016.8
20260504182630 17 254 4.8 12.9 0.00 0.00 0.00 24 1017.0
20260504182145 17 309 3.2 12.9 0.00 0.00 0.00 23 1017.1
20260504181637 17 67 6.4 11.3 0.00 0.00 0.00 23 1017.1
20260504181152 17 132 3.2 11.3 0.00 0.00 0.00 23 1017.3
20260504180628 17 296 4.8 16.1 0.00 0.00 0.00 23 1017.6
20260504180143 17 335 6.4 16.1 0.00 0.00 0.00 23 1017.5
20260504175635 17 42 4.8 14.5 0.00 0.00 0.00 23 1017.4
20260504175129 16 350 3.2 12.9 0.00 0.00 0.00 24 1017.6
20260504174623 16 211 4.8 12.9 0.00 0.00 0.00 23 1017.5
20260504174137 16 125 3.2 8.0 0.00 0.00 0.00 26 1017.7
20260504173630 16 312 3.2 12.9 0.00 0.00 0.00 27 1017.7
20260504173145 16 333 3.2 12.9 0.00 0.00 0.00 29 1017.7
20260504172638 16 86 3.2 6.4 0.00 0.00 0.00 29 1017.7
20260504172135 16 306 1.6 6.4 0.00 0.00 0.00 30 1017.7
20260504171628 15 326 1.6 6.4 0.00 0.00 0.00 32 1017.9
20260504171123 15 284 1.6 6.4 0.00 0.00 0.00 31 1017.8
20260504170636 15 60 3.2 8.0 0.00 0.00 0.00 31 1017.7
20260504170129 15 22 3.2 6.4 0.00 0.00 0.00 32 1017.8
20260504160122 15 61 3.2 12.9 0.00 0.00 0.00 37 1018.1
20260504151123 13 17 3.2 14.5 0.00 0.00 0.00 42 1018.5
20260504150636 12 343 6.4 14.5 0.00 0.00 0.00 42 1018.5
20260504150130 12 36 4.8 11.3 0.00 0.00 0.00 42 1018.5
20260504141152 10 134 0.0 0.0 0.00 0.00 0.00 60 1018.5
20260504140624 8 260 0.0 11.3 0.00 0.00 0.00 63 1018.6
20260504140158 8 333 0.0 11.3 0.00 0.00 0.00 70 1018.5
20260504130650 6 168 0.0 0.0 0.00 0.00 0.00 77 1018.2
20260504130127 6 168 0.0 0.0 0.00 0.00 0.00 77 1018.4
20260504120138 6 168 0.0 0.0 0.00 0.00 0.00 75 1017.8
20260504110636 7 168 0.0 0.0 0.00 0.00 0.00 74 1017.6
20260504110134 7 168 0.0 0.0 0.00 0.00 0.00 73 1017.6
20260504100122 8 168 0.0 0.0 0.00 0.00 0.00 68 1017.9
20260504090132 10 140 4.8 8.0 0.00 0.00 0.00 60 1017.6
20260504081700 9 225 0.0 0.0 0.00 0.00 0.00 65 1018.5
20260504081131 9 225 0.0 0.0 0.00 0.00 0.00 65 1018.5
20260504080626 9 225 0.0 0.0 0.00 0.00 0.00 64 1018.6
20260504080123 9 225 0.0 0.0 0.00 0.00 0.00 62 1018.8